Location: Newark
(16.3678°N, 77.8722°E)
Time: 05:31:25
(UTC+00:00)

Tiros 1 - Pass Details

Date: 12 December 2019
Orbit: 630 x 664 km, 48.4° (Epoch: 28 January)

Event Time Altitude Azimuth Distance (km) Brightness Sun altitude
Rises 06:52:24 0° 339° (NNW) 2,909 10.2 50.5°
Reaches altitude 10° 06:55:23 10° 359° (N) 1,999 9.4 50.4°
Maximum altitude 06:58:30 18° 42° (NE) 1,546 9.0 50.4°
Drops below altitude 10° 07:01:38 10° 85° (E) 1,998 9.7 50.3°
Sets 07:04:36 0° 105° (ESE) 2,906 10.6 50.2°
